• Join FlightAware (Why Join?)
  • Login
  • US Flag 
09:51PM EST


 

Airport Tracker/Info


-or-


 

Live Flight TrackerFlight Track Log ✈ N77VZ ✈ 11-Oct-2013 ✈ KAPF - KSVH

Flight Track Log - Related Links

Times and Time Zones

All times are in EDT time to prevent confusion due to time zone crossing. See the N77VZ flight status page for this flight to view local times or setup timezone preferences in your user account.

Time Position Orientation Groundspeed Altitude Reporting Facility
EDT Latitude Longitude Course Direction KTS MPH feet Rate Location/Type
04:15PM 26.0869 -81.7281 336° Northwest 273 314 31,000  Level Miami Center
04:16PM 26.0989 -81.8072 280° West 275 316 8,600 -10,350 Descending Miami Center
04:17PM 26.1192 -81.8867 286° West 275 316 10,300 1,750 Climbing Miami Center
04:18PM 26.1372 -81.9706 283° West 280 322 12,100 1,800 Climbing Miami Center
04:19PM 26.6845 -81.7342 336° Northwest  Level Estimated
04:19PM 26.1550 -82.0592 283° West 288 331 13,900  Level Miami Center
04:20PM 26.1725 -82.1481 282° West 293 337 15,400 1,500 Climbing Miami Center
04:21PM 26.2244 -82.2128 312° West 290 334 16,900 1,500 Climbing Miami Center
04:22PM 26.3025 -82.2533 335° Northwest 291 335 18,400 1,350 Climbing Miami Center
04:23PM 26.3781 -82.2917 336° Northwest 297 342 19,600 1,250 Climbing Miami Center
04:24PM 26.4561 -82.3322 335° Northwest 302 348 20,900 1,350 Climbing Miami Center
04:25PM 26.5358 -82.3708 337° Northwest 302 348 22,300 1,400 Climbing Miami Center
04:26PM 26.6136 -82.4139 334° Northwest 307 353 23,700 1,400 Climbing Miami Center
04:27PM 26.6914 -82.4525 336° Northwest 307 353 25,100 1,400 Climbing Miami Center
04:28PM 26.7692 -82.4933 335° Northwest 307 353 26,500 1,400 Climbing Miami Center
04:29PM 26.8428 -82.5317 335° Northwest 307 353 27,900 1,400 Climbing Miami Center
04:30PM 26.9183 -82.5728 334° Northwest 296 341 29,300 1,050 Climbing Miami Center
04:31PM 26.9922 -82.6089 336° Northwest 296 341 30,000 350 Climbing Miami Center
04:32PM 27.0758 -82.6528 335° Northwest 309 356 30,000  Level Miami Center
04:33PM 27.1617 -82.6989 334° Northwest 322 371 30,000  Level Miami Center
04:34PM 27.2494 -82.7453 335° Northwest 334 384 30,000  Level Miami Center
04:35PM 27.3475 -82.7972 335° Northwest 343 395 30,000  Level Miami Center
04:37PM 27.5386 -82.8481 347° North 350 403 30,000  Level Jacksonville Center
04:38PM 27.6389 -82.8317 North 350 403 30,000  Level Jacksonville Center
04:39PM 27.7389 -82.8200 North 356 410 30,000  Level Jacksonville Center
04:40PM 27.8389 -82.8081 North 356 410 30,000  Level Jacksonville Center
04:41PM 27.9392 -82.7964 North 356 410 30,000  Level Jacksonville Center
04:42PM 28.0372 -82.7844 North 356 410 30,000  Level Jacksonville Center
04:43PM 28.1372 -82.7703 North 356 410 30,000  Level Jacksonville Center
04:44PM 28.2397 -82.7583 North 356 410 30,000  Level Jacksonville Center
04:45PM 28.3336 -82.7464 North 351 404 30,000  Level Jacksonville Center
04:46PM 28.4317 -82.7556 355° North 351 404 30,000 -50 Level Jacksonville Center
04:47PM 28.5256 -82.7839 345° North 345 397 29,900 -50 Descending Jacksonville Center
04:48PM 28.6214 -82.7814 North 345 397 29,900 50 Level Jacksonville Center
04:49PM 28.7300 -82.7647 North 350 403 30,000  Climbing Jacksonville Center
04:50PM 28.8261 -82.7528 North 350 403 29,900  Descending Jacksonville Center
04:51PM 28.9242 -82.7408 North 350 403 30,000 50 Climbing Jacksonville Center
04:52PM 29.0200 -82.7286 North 350 403 30,000  Level Jacksonville Center
04:53PM 29.1203 -82.7167 North 350 403 30,000  Level Jacksonville Center
04:54PM 29.2164 -82.7047 North 350 403 30,000  Level Jacksonville Center
04:55PM 29.3164 -82.6950 North 350 403 30,000  Level Jacksonville Center
04:56PM 29.4144 -82.6828 North 350 403 30,000  Level Jacksonville Center
04:57PM 29.5042 -82.6756 North 350 403 30,000 50 Level Jacksonville Center
04:58PM 29.6003 -82.6633 North 350 403 30,100 300 Climbing Jacksonville Center
04:59PM 29.7006 -82.6536 North 350 403 30,600 400 Climbing Jacksonville Center
05:00PM 29.8047 -82.6342 North 342 394 30,900 200 Climbing Jacksonville Center
05:01PM 29.9031 -82.6219 North 347 399 31,000 50 Climbing Jacksonville Center
05:02PM 29.9947 -82.6144 North 352 405 31,000 -50 Level Jacksonville Center
05:03PM 30.0928 -82.6069 North 352 405 30,900  Descending Jacksonville Center
05:04PM 30.1931 -82.5922 North 352 405 31,000 50 Climbing Jacksonville Center
05:05PM 30.2953 -82.5797 North 352 405 31,000  Level Jacksonville Center
05:06PM 30.3956 -82.5675 North 352 405 31,000  Level Jacksonville Center
05:07PM 30.4958 -82.5550 North 352 405 31,000  Level Jacksonville Center
05:08PM 30.5981 -82.5425 North 352 405 31,000 -50 Level Jacksonville Center
05:09PM 30.6983 -82.5278 North 352 405 30,900  Descending Jacksonville Center
05:10PM 30.8089 -82.5153 North 357 411 31,000 50 Climbing Jacksonville Center
05:11PM 30.9111 -82.5028 North 357 411 31,000  Level Jacksonville Center
05:12PM 31.0133 -82.4878 North 367 422 31,000  Level Jacksonville Center
05:13PM 31.1156 -82.4753 North 367 422 31,000  Level Jacksonville Center
05:14PM 31.2178 -82.4603 North 367 422 31,000 -50 Level Jacksonville Center
05:15PM 31.3203 -82.4475 North 367 422 30,900  Descending Jacksonville Center
05:18PM 31.6147 -82.4075 North 354 407 31,000 25 Climbing Atlanta Center
05:19PM 31.7128 -82.3933 North 341 392 31,000  Level Atlanta Center
05:20PM 31.8106 -82.3794 North 341 392 31,000  Level Atlanta Center
05:21PM 31.9128 -82.3678 North 347 399 31,000  Level Atlanta Center
05:22PM 32.0128 -82.3536 North 339 390 31,000  Level Atlanta Center
05:23PM 32.1128 -82.3394 North 351 404 31,000  Level Atlanta Center
05:24PM 32.2106 -82.3278 North 356 410 31,000  Level Atlanta Center
05:25PM 32.3189 -82.3111 North 356 410 31,000  Level Atlanta Center
05:26PM 32.4167 -82.2967 North 350 403 31,000  Level Atlanta Center
05:27PM 32.5189 -82.2825 North 350 403 31,000  Level Atlanta Center
05:28PM 32.6189 -82.2706 North 350 403 31,000  Level Atlanta Center
05:29PM 32.7167 -82.2564 North 350 403 31,000  Level Atlanta Center
05:30PM 32.8083 -82.2422 North 355 409 31,000  Level Atlanta Center
05:31PM 32.9042 -82.2303 North 355 409 31,000  Level Atlanta Center
05:32PM 33.0022 -82.2158 North 350 403 31,000  Level Atlanta Center
05:33PM 33.1042 -82.2014 North 350 403 31,000  Level Atlanta Center
05:34PM 33.2022 -82.1892 North 350 403 31,000 -150 Level Atlanta Center
05:35PM 33.3042 -82.1722 North 350 403 30,700 -650 Descending Atlanta Center
05:36PM 33.4042 -82.1575 North 350 403 29,700 -950 Descending Atlanta Center
05:37PM 33.5042 -82.1456 North 350 403 28,800 -950 Descending Atlanta Center
05:38PM 33.6061 -82.1308 North 355 409 27,800 -950 Descending Atlanta Center
05:39PM 33.7103 -82.1158 North 367 422 26,900 -1,000 Descending Atlanta Center
05:40PM 33.8228 -82.1008 North 367 422 25,800 -1,000 Descending Atlanta Center
05:41PM 33.9269 -82.0836 North 367 422 24,900 -900 Descending Atlanta Center
05:42PM 34.0289 -82.0711 North 367 422 24,000 -450 Descending Atlanta Center
05:43PM 34.1289 -82.0564 North 367 422 24,000 -400 Level Atlanta Center
05:44PM 34.2289 -82.0414 North 362 417 23,200 -850 Descending Atlanta Center
05:45PM 34.3133 -81.9842 29° Northeast 348 400 22,300 -950 Descending Atlanta Center
05:46PM 34.3981 -81.9267 29° Northeast 348 400 21,300 -1,000 Descending Atlanta Center
05:47PM 34.4847 -81.8639 31° Northeast 348 400 20,300 -950 Descending Atlanta Center
05:48PM 34.5628 -81.8089 30° Northeast 343 395 19,400 -1,000 Descending Atlanta Center
05:49PM 34.6475 -81.7561 27° Northeast 333 383 18,300 -1,000 Descending Atlanta Center
05:50PM 34.7297 -81.6958 31° Northeast 333 383 17,400 -909 Descending Atlanta Center
05:51PM 34.7833 -81.6564 31° Northeast 343 395 16,800 -1,000 Descending Atlanta Center
05:51PM 34.8081 -81.6381 31° Northeast 326 375 16,400 -973 Descending Atlanta Center
05:51PM 34.8306 -81.6222 30° Northeast 329 379 16,200 -1,000 Descending Atlanta Center
05:52PM 34.8864 -81.5850 29° Northeast 321 369 15,400 -984 Descending Atlanta Center
05:52PM 34.9089 -81.5692 30° Northeast 315 362 15,200 -800 Descending Atlanta Center
05:53PM 34.9561 -81.5350 31° Northeast 315 362 14,600 -984 Descending Atlanta Center
05:53PM 34.9869 -81.5136 30° Northeast 318 366 14,200 -1,200 Descending Atlanta Center
05:54PM 35.0322 -81.4819 30° Northeast 315 362 13,400 -1,600 Descending Atlanta Center
05:54PM 35.0611 -81.4581 34° Northeast 316 364 12,600 -1,900 Descending Atlanta Center
05:55PM 35.1064 -81.4314 26° Northeast 310 357 11,500 -1,869 Descending Atlanta Center
05:55PM 35.1328 -81.4025 42° Northeast 303 349 10,700 -2,000 Descending Atlanta Center
05:56PM 35.1739 -81.3733 30° Northeast 297 342 9,500 -1,964 Descending Atlanta Center
05:56PM 35.1967 -81.3650 17° North 281 323 8,900 -2,000 Descending Atlanta Center
05:57PM 35.2442 -81.3356 27° Northeast 271 312 7,500 -1,701 Descending Atlanta Center
05:57PM 35.2728 -81.3142 31° Northeast 252 290 7,000 -900 Descending Atlanta Center
05:58PM 35.3036 -81.2928 30° Northeast 257 296 6,600 -590 Descending Atlanta Center
05:58PM 35.3364 -81.2689 31° Northeast 256 295 6,400 -500 Descending Atlanta Center
05:59PM 35.3653 -81.2500 28° Northeast 277 319 6,100 -590 Descending Atlanta Center
05:59PM 35.4000 -81.2208 34° Northeast 280 322 5,800 -800 Descending Atlanta Center
06:00PM 35.4308 -81.1994 29° Northeast 247 284 5,300 -787 Descending Atlanta Center
06:00PM 35.4617 -81.1778 30° Northeast 245 282 5,000 -700 Descending Atlanta Center
06:01PM 35.5006 -81.1458 34° Northeast 246 283 4,600 -787 Descending Atlanta Center
06:01PM 35.5211 -81.1350 23° Northeast 250 288 4,200 -800 Descending Atlanta Center
06:02PM 35.5539 -81.1108 31° Northeast 274 315 3,800 -800 Descending Atlanta Center
06:02PM 35.5889 -81.0867 29° Northeast 263 303 3,400 -500 Descending Atlanta Center
06:03PM 35.6156 -81.0653 33° Northeast 252 290 3,300 -171 Descending Atlanta Center